Year,Month,Day,Hour,Minute,Value (Times are PST for temperature in C)
2015,03,03,00,00,3.10
2015,03,03,00,01,3.10
2015,03,03,00,02,3.00
2015,03,03,00,03,3.00
2015,03,03,00,04,3.00
2015,03,03,00,05,3.00
2015,03,03,00,06,3.00
2015,03,03,00,07,3.00
2015,03,03,00,08,2.90
2015,03,03,00,09,2.90
2015,03,03,00,10,2.90
2015,03,03,00,11,2.90
2015,03,03,00,12,2.90
2015,03,03,00,13,2.90
2015,03,03,00,14,2.80
2015,03,03,00,15,2.80
2015,03,03,00,16,2.80
2015,03,03,00,17,2.80
2015,03,03,00,18,2.80
2015,03,03,00,19,2.80
2015,03,03,00,20,2.80
2015,03,03,00,21,2.80
2015,03,03,00,22,2.80
2015,03,03,00,23,2.80
2015,03,03,00,24,2.80
2015,03,03,00,25,2.80
2015,03,03,00,26,2.80
2015,03,03,00,27,2.80
2015,03,03,00,28,2.90
2015,03,03,00,29,2.90
2015,03,03,00,30,2.80
2015,03,03,00,31,2.80
2015,03,03,00,32,2.80
2015,03,03,00,33,2.80
2015,03,03,00,34,2.80
2015,03,03,00,35,2.90
2015,03,03,00,36,2.90
2015,03,03,00,37,2.90
2015,03,03,00,38,2.90
2015,03,03,00,39,2.90
2015,03,03,00,40,2.90
2015,03,03,00,41,2.90
2015,03,03,00,42,2.90
2015,03,03,00,43,2.90
2015,03,03,00,44,2.90
2015,03,03,00,45,2.90
2015,03,03,00,46,2.90
2015,03,03,00,47,2.90
2015,03,03,00,48,2.90
2015,03,03,00,49,2.90
2015,03,03,00,50,2.90
2015,03,03,00,51,2.90
2015,03,03,00,52,2.90
2015,03,03,00,53,2.80
2015,03,03,00,54,2.80
2015,03,03,00,55,2.80
2015,03,03,00,56,2.80
2015,03,03,00,57,2.80
2015,03,03,00,58,2.80
2015,03,03,00,59,2.70
2015,03,03,01,00,2.70
2015,03,03,01,01,2.70
2015,03,03,01,02,2.70
2015,03,03,01,03,2.60
2015,03,03,01,04,2.60
2015,03,03,01,05,2.60
2015,03,03,01,06,2.60
2015,03,03,01,07,2.50
2015,03,03,01,08,2.50
2015,03,03,01,09,2.50
2015,03,03,01,10,2.50
2015,03,03,01,11,2.40
2015,03,03,01,12,2.40
2015,03,03,01,13,2.40
2015,03,03,01,14,2.40
2015,03,03,01,15,2.30
2015,03,03,01,16,2.30
2015,03,03,01,17,2.30
2015,03,03,01,18,2.30
2015,03,03,01,19,2.30
2015,03,03,01,20,2.30
2015,03,03,01,21,2.30
2015,03,03,01,22,2.30
2015,03,03,01,23,2.20
2015,03,03,01,24,2.30
2015,03,03,01,25,2.30
2015,03,03,01,26,2.30
2015,03,03,01,27,2.30
2015,03,03,01,28,2.30
2015,03,03,01,29,2.30
2015,03,03,01,30,2.40
2015,03,03,01,31,2.40
2015,03,03,01,32,2.40
2015,03,03,01,33,2.40
2015,03,03,01,34,2.40
2015,03,03,01,35,2.40
2015,03,03,01,36,2.40
2015,03,03,01,37,2.40
2015,03,03,01,38,2.40
2015,03,03,01,39,2.40
2015,03,03,01,40,2.40
2015,03,03,01,41,2.40
2015,03,03,01,42,2.40
2015,03,03,01,43,2.30
2015,03,03,01,44,2.30
2015,03,03,01,45,2.30
2015,03,03,01,46,2.30
2015,03,03,01,47,2.30
2015,03,03,01,48,2.30
2015,03,03,01,49,2.30
2015,03,03,01,50,2.30
2015,03,03,01,51,2.30
2015,03,03,01,52,2.30
2015,03,03,01,53,2.30
2015,03,03,01,54,2.30
2015,03,03,01,55,2.30
2015,03,03,01,56,2.30
2015,03,03,01,57,2.30
2015,03,03,01,58,2.30
2015,03,03,01,59,2.20
2015,03,03,02,00,2.20
2015,03,03,02,01,2.20
2015,03,03,02,02,2.20
2015,03,03,02,03,2.20
2015,03,03,02,04,2.20
2015,03,03,02,05,2.20
2015,03,03,02,06,2.20
2015,03,03,02,07,2.20
2015,03,03,02,08,2.20
2015,03,03,02,09,2.20
2015,03,03,02,10,2.20
2015,03,03,02,11,2.20
2015,03,03,02,12,2.20
2015,03,03,02,13,2.20
2015,03,03,02,14,2.20
2015,03,03,02,15,2.20
2015,03,03,02,16,2.20
2015,03,03,02,17,2.20
2015,03,03,02,18,2.20
2015,03,03,02,19,2.20
2015,03,03,02,20,2.20
2015,03,03,02,21,2.20
2015,03,03,02,22,2.20
2015,03,03,02,23,2.20
2015,03,03,02,24,2.20
2015,03,03,02,25,2.20
2015,03,03,02,26,2.20
2015,03,03,02,27,2.20
2015,03,03,02,28,2.20
2015,03,03,02,29,2.20
2015,03,03,02,30,2.20
2015,03,03,02,31,2.20
2015,03,03,02,32,2.20
2015,03,03,02,33,2.20
2015,03,03,02,34,2.10
2015,03,03,02,35,2.10
2015,03,03,02,36,2.10
2015,03,03,02,37,2.10
2015,03,03,02,38,2.10
2015,03,03,02,39,2.10
2015,03,03,02,40,2.10
2015,03,03,02,41,2.10
2015,03,03,02,42,2.10
2015,03,03,02,43,2.10
2015,03,03,02,44,2.10
2015,03,03,02,45,2.10
2015,03,03,02,46,2.10
2015,03,03,02,47,2.10
2015,03,03,02,48,2.10
2015,03,03,02,49,2.10
2015,03,03,02,50,2.10
2015,03,03,02,51,2.10
2015,03,03,02,52,2.10
2015,03,03,02,53,2.10
2015,03,03,02,54,2.10
2015,03,03,02,55,2.10
2015,03,03,02,56,2.10
2015,03,03,02,57,2.10
2015,03,03,02,58,2.00
2015,03,03,02,59,2.00
2015,03,03,03,00,2.00
2015,03,03,03,01,2.00
2015,03,03,03,02,2.00
2015,03,03,03,03,2.00
2015,03,03,03,04,2.00
2015,03,03,03,05,2.00
2015,03,03,03,06,2.00
2015,03,03,03,07,2.00
2015,03,03,03,08,2.00
2015,03,03,03,09,2.00
2015,03,03,03,10,2.00
2015,03,03,03,11,1.90
2015,03,03,03,12,1.90
2015,03,03,03,13,1.90
2015,03,03,03,14,1.90
2015,03,03,03,15,1.90
2015,03,03,03,16,1.90
2015,03,03,03,17,1.90
2015,03,03,03,18,1.90
2015,03,03,03,19,1.80
2015,03,03,03,20,1.80
2015,03,03,03,21,1.80
2015,03,03,03,22,1.80
2015,03,03,03,23,1.80
2015,03,03,03,24,1.80
2015,03,03,03,25,1.80
2015,03,03,03,26,1.70
2015,03,03,03,27,1.70
2015,03,03,03,28,1.70
2015,03,03,03,29,1.70
2015,03,03,03,30,1.70
2015,03,03,03,31,1.60
2015,03,03,03,32,1.60
2015,03,03,03,33,1.60
2015,03,03,03,34,1.60
2015,03,03,03,35,1.60
2015,03,03,03,36,1.60
2015,03,03,03,37,1.60
2015,03,03,03,38,1.60
2015,03,03,03,39,1.60
2015,03,03,03,40,1.60
2015,03,03,03,41,1.60
2015,03,03,03,42,1.50
2015,03,03,03,43,1.50
2015,03,03,03,44,1.50
2015,03,03,03,45,1.50
2015,03,03,03,46,1.50
2015,03,03,03,47,1.50
2015,03,03,03,48,1.40
2015,03,03,03,49,1.40
2015,03,03,03,50,1.40
2015,03,03,03,51,1.40
2015,03,03,03,52,1.40
2015,03,03,03,53,1.40
2015,03,03,03,54,1.40
2015,03,03,03,55,1.40
2015,03,03,03,56,1.30
2015,03,03,03,57,1.30
2015,03,03,03,58,1.30
2015,03,03,03,59,1.30
2015,03,03,04,00,1.30
2015,03,03,04,01,1.30
2015,03,03,04,02,1.30
2015,03,03,04,03,1.30
2015,03,03,05,02,0.90
2015,03,03,05,03,0.90
2015,03,03,05,04,0.90
2015,03,03,05,05,0.90
2015,03,03,05,06,0.90
2015,03,03,05,07,0.90
2015,03,03,05,08,0.90
2015,03,03,05,09,0.90
2015,03,03,05,10,0.90
2015,03,03,05,11,0.90
2015,03,03,05,12,0.90
2015,03,03,05,13,0.90
2015,03,03,05,14,0.90
2015,03,03,05,15,0.90
2015,03,03,05,16,0.90
2015,03,03,05,17,0.90
2015,03,03,05,18,0.90
2015,03,03,05,19,0.80
2015,03,03,05,20,0.80
2015,03,03,05,21,0.80
2015,03,03,05,22,0.80
2015,03,03,05,23,0.80
2015,03,03,05,24,0.80
2015,03,03,05,25,0.80
2015,03,03,05,26,0.80
2015,03,03,05,27,0.80
2015,03,03,05,28,0.80
2015,03,03,05,29,0.80
2015,03,03,05,30,0.80
2015,03,03,05,31,0.90
2015,03,03,05,32,0.90
2015,03,03,05,33,0.90
2015,03,03,05,34,0.90
2015,03,03,05,35,0.90
2015,03,03,05,36,0.90
2015,03,03,05,37,0.90
2015,03,03,05,38,0.90
2015,03,03,05,39,0.90
2015,03,03,05,40,0.90
2015,03,03,05,41,0.90
2015,03,03,05,42,0.90
2015,03,03,05,43,0.90
2015,03,03,05,44,0.90
2015,03,03,05,45,0.80
2015,03,03,05,46,0.80
2015,03,03,05,47,0.80
2015,03,03,05,48,0.80
2015,03,03,05,49,0.80
2015,03,03,05,50,0.70
2015,03,03,05,51,0.70
2015,03,03,05,52,0.70
2015,03,03,05,53,0.70
2015,03,03,05,54,0.70
2015,03,03,05,55,0.70
2015,03,03,05,56,0.70
2015,03,03,05,57,0.70
2015,03,03,05,58,0.70
2015,03,03,05,59,0.70
2015,03,03,06,00,0.70
2015,03,03,06,01,0.70
2015,03,03,06,02,0.70
2015,03,03,06,03,0.70
2015,03,03,06,04,0.70
2015,03,03,06,05,0.70
2015,03,03,06,06,0.70
2015,03,03,06,07,0.70
2015,03,03,06,08,0.70
2015,03,03,06,09,0.70
2015,03,03,06,10,0.70
2015,03,03,06,11,0.70
2015,03,03,06,12,0.80
2015,03,03,06,13,0.80
2015,03,03,06,14,0.80
2015,03,03,06,15,0.80
2015,03,03,06,16,0.80
2015,03,03,06,17,0.80
2015,03,03,06,18,0.80
2015,03,03,06,19,0.80
2015,03,03,06,20,0.80
2015,03,03,06,21,0.80
2015,03,03,06,22,0.80
2015,03,03,06,23,0.80
2015,03,03,06,24,0.80
2015,03,03,06,25,0.80
2015,03,03,06,26,0.80
2015,03,03,06,27,0.80
2015,03,03,06,28,0.80
2015,03,03,06,29,0.80
2015,03,03,06,30,0.80
2015,03,03,06,31,0.80
2015,03,03,06,32,0.80
2015,03,03,06,33,0.80
2015,03,03,06,34,0.80
2015,03,03,06,35,0.80
2015,03,03,06,36,0.80
2015,03,03,06,37,0.80
2015,03,03,06,38,0.80
2015,03,03,06,39,0.80
2015,03,03,06,40,0.80
2015,03,03,06,41,0.80
2015,03,03,06,42,0.80
2015,03,03,06,43,0.80
2015,03,03,06,44,0.80
2015,03,03,06,45,0.80
2015,03,03,06,46,0.80
2015,03,03,06,47,0.80
2015,03,03,06,48,0.70
2015,03,03,06,49,0.70
2015,03,03,06,50,0.70
2015,03,03,06,51,0.70
2015,03,03,06,52,0.70
2015,03,03,06,53,0.70
2015,03,03,06,54,0.70
2015,03,03,06,55,0.70
2015,03,03,06,56,0.70
2015,03,03,06,57,0.60
2015,03,03,06,58,0.60
2015,03,03,06,59,0.60
2015,03,03,07,00,0.60
2015,03,03,07,01,0.60
2015,03,03,07,02,0.60
2015,03,03,07,03,0.60
2015,03,03,07,04,0.60
2015,03,03,07,05,0.60
2015,03,03,07,06,0.60
2015,03,03,07,07,0.60
2015,03,03,07,08,0.60
2015,03,03,07,09,0.60
2015,03,03,07,10,0.60
2015,03,03,07,11,0.60
2015,03,03,07,12,0.60
2015,03,03,07,13,0.60
2015,03,03,07,14,0.60
2015,03,03,07,15,0.60
2015,03,03,07,16,0.60
2015,03,03,07,17,0.60
2015,03,03,07,18,0.60
2015,03,03,07,19,0.60
2015,03,03,07,20,0.60
2015,03,03,07,21,0.60
2015,03,03,07,22,0.60
2015,03,03,07,23,0.60
2015,03,03,07,24,0.60
2015,03,03,07,25,0.60
2015,03,03,07,26,0.60
2015,03,03,07,27,0.70
2015,03,03,07,28,0.70
2015,03,03,07,29,0.70
2015,03,03,07,30,0.70
2015,03,03,07,31,0.70
2015,03,03,07,32,0.70
2015,03,03,07,33,0.70
2015,03,03,07,34,0.70
2015,03,03,07,35,0.70
2015,03,03,07,36,0.70
2015,03,03,07,37,0.70
2015,03,03,07,38,0.80
2015,03,03,07,39,0.80
2015,03,03,07,40,0.80
2015,03,03,07,41,0.80
2015,03,03,07,42,0.90
2015,03,03,07,43,0.90
2015,03,03,07,44,0.90
2015,03,03,07,45,1.00
2015,03,03,07,46,1.00
2015,03,03,07,47,1.00
2015,03,03,07,48,1.10
2015,03,03,07,49,1.10
2015,03,03,07,50,1.10
2015,03,03,07,51,1.10
2015,03,03,07,52,1.20
2015,03,03,07,53,1.20
2015,03,03,07,54,1.20
2015,03,03,07,55,1.20
2015,03,03,07,56,1.30
2015,03,03,07,57,1.30
2015,03,03,07,58,1.30
2015,03,03,07,59,1.30
2015,03,03,08,00,1.40
2015,03,03,08,01,1.40
2015,03,03,08,02,1.50
2015,03,03,08,03,1.50
2015,03,03,08,04,1.60
2015,03,03,08,05,1.60
2015,03,03,08,06,1.60
2015,03,03,08,07,1.70
2015,03,03,08,08,1.70
2015,03,03,08,09,1.80
2015,03,03,08,10,1.80
2015,03,03,08,11,1.90
2015,03,03,08,12,1.90
2015,03,03,08,13,1.90
2015,03,03,08,14,2.00
2015,03,03,08,15,2.00
2015,03,03,08,16,2.10
2015,03,03,08,17,2.10
2015,03,03,08,18,2.20
2015,03,03,08,19,2.20
2015,03,03,08,20,2.30
2015,03,03,08,21,2.30
2015,03,03,08,22,2.30
2015,03,03,08,23,2.40
2015,03,03,08,24,2.40
2015,03,03,08,25,2.50
2015,03,03,08,26,2.60
2015,03,03,08,27,2.60
2015,03,03,08,28,2.60
2015,03,03,08,29,2.70
2015,03,03,08,30,2.70
2015,03,03,08,31,2.80
2015,03,03,08,32,2.80
2015,03,03,08,33,2.90
2015,03,03,08,34,2.90
2015,03,03,08,35,3.00
2015,03,03,08,36,3.00
2015,03,03,08,37,3.10
2015,03,03,08,38,3.10
2015,03,03,08,39,3.20
2015,03,03,08,40,3.20
2015,03,03,08,41,3.20
2015,03,03,08,42,3.30
2015,03,03,08,43,3.30
2015,03,03,08,44,3.30
2015,03,03,08,45,3.40
2015,03,03,08,46,3.40
2015,03,03,08,47,3.50
2015,03,03,08,48,3.50
2015,03,03,08,49,3.60
2015,03,03,08,50,3.60
2015,03,03,08,51,3.60
2015,03,03,08,52,3.70
2015,03,03,08,53,3.70
2015,03,03,08,54,3.70
2015,03,03,08,55,3.80
2015,03,03,08,56,3.80
2015,03,03,08,57,3.80
2015,03,03,08,58,3.90
2015,03,03,08,59,3.90
2015,03,03,09,00,4.00
2015,03,03,09,01,4.00
2015,03,03,09,02,4.10
2015,03,03,09,03,4.10
2015,03,03,09,04,4.10
2015,03,03,09,05,4.20
2015,03,03,09,06,4.20
2015,03,03,09,07,4.40
2015,03,03,09,08,4.50
2015,03,03,09,09,4.60
2015,03,03,09,10,4.70
2015,03,03,09,11,4.80
2015,03,03,09,12,4.80
2015,03,03,09,13,4.90
2015,03,03,09,14,5.00
2015,03,03,09,15,5.10
2015,03,03,09,16,5.10
2015,03,03,09,17,5.20
2015,03,03,09,18,5.30
2015,03,03,09,19,5.40
2015,03,03,09,20,5.50
2015,03,03,09,21,5.50
2015,03,03,09,22,5.50
2015,03,03,09,23,5.60
2015,03,03,09,24,5.60
2015,03,03,09,25,5.60
2015,03,03,09,26,5.70
2015,03,03,09,27,5.80
2015,03,03,09,28,5.80
2015,03,03,09,29,5.80
2015,03,03,09,30,5.80
2015,03,03,09,31,5.70
2015,03,03,09,32,5.60
2015,03,03,09,33,5.50
2015,03,03,09,34,5.40
2015,03,03,09,35,5.40
2015,03,03,09,36,5.40
2015,03,03,09,37,5.40
2015,03,03,09,38,5.50
2015,03,03,09,39,5.70
2015,03,03,09,40,5.90
2015,03,03,09,41,6.00
2015,03,03,09,42,6.00
2015,03,03,09,43,6.00
2015,03,03,09,44,6.10
2015,03,03,09,45,6.00
2015,03,03,09,46,6.00
2015,03,03,09,47,5.90
2015,03,03,09,48,5.90
2015,03,03,09,49,6.00
2015,03,03,09,50,6.00
2015,03,03,09,51,6.10
2015,03,03,09,52,6.20
2015,03,03,09,53,6.20
2015,03,03,09,54,6.20
2015,03,03,09,55,6.30
2015,03,03,09,56,6.40
2015,03,03,09,57,6.40
2015,03,03,09,58,6.40
2015,03,03,09,59,6.40
2015,03,03,10,00,6.40
2015,03,03,10,01,6.40
2015,03,03,10,02,6.40
2015,03,03,10,03,6.50
2015,03,03,10,04,6.50
2015,03,03,10,05,6.50
2015,03,03,10,06,6.50
2015,03,03,10,07,6.60
2015,03,03,10,08,6.70
2015,03,03,10,09,6.80
2015,03,03,10,10,6.80
2015,03,03,10,11,6.80
2015,03,03,10,12,6.90
2015,03,03,10,13,6.90
2015,03,03,10,14,6.90
2015,03,03,10,15,6.90
2015,03,03,10,16,6.80
2015,03,03,10,17,6.80
2015,03,03,10,18,6.70
2015,03,03,10,19,6.70
2015,03,03,10,20,6.70
2015,03,03,10,21,6.70
2015,03,03,10,22,6.70
2015,03,03,10,23,6.70
2015,03,03,10,24,6.80
2015,03,03,10,25,6.90
2015,03,03,10,26,7.00
2015,03,03,10,27,7.00
2015,03,03,10,28,7.10
2015,03,03,10,29,7.20
2015,03,03,10,30,7.20
2015,03,03,10,31,7.30
2015,03,03,10,32,7.30
2015,03,03,10,33,7.30
2015,03,03,10,34,7.30
2015,03,03,10,35,7.40
2015,03,03,10,36,7.50
2015,03,03,10,37,7.50
2015,03,03,10,38,7.50
2015,03,03,10,39,7.40
2015,03,03,10,40,7.40
2015,03,03,10,41,7.30
2015,03,03,10,42,7.30
2015,03,03,10,43,7.30
2015,03,03,10,44,7.20
2015,03,03,10,45,7.30
2015,03,03,10,46,7.30
2015,03,03,10,47,7.20
2015,03,03,10,48,7.10
2015,03,03,10,49,7.10
2015,03,03,10,50,7.10
2015,03,03,10,51,7.00
2015,03,03,10,52,6.90
2015,03,03,10,53,6.80
2015,03,03,10,54,6.80
2015,03,03,10,55,6.70
2015,03,03,10,56,6.80
2015,03,03,10,57,6.80
2015,03,03,10,58,6.90
2015,03,03,10,59,6.90
2015,03,03,11,00,7.00
2015,03,03,11,01,7.00
2015,03,03,11,02,7.00
2015,03,03,11,03,7.00
2015,03,03,11,04,7.00
2015,03,03,11,05,7.00
2015,03,03,11,06,7.00
2015,03,03,11,07,7.00
2015,03,03,11,08,7.00
2015,03,03,11,09,7.00
2015,03,03,11,10,7.00
2015,03,03,11,11,7.00
2015,03,03,11,12,6.90
2015,03,03,11,13,6.90
2015,03,03,11,14,6.90
2015,03,03,11,15,6.90
2015,03,03,11,16,6.90
2015,03,03,11,17,6.90
2015,03,03,11,18,6.90
2015,03,03,11,19,6.90
2015,03,03,11,20,6.90
2015,03,03,11,21,6.90
2015,03,03,11,22,6.90
2015,03,03,11,23,7.00
2015,03,03,11,24,7.00
2015,03,03,11,25,7.10
2015,03,03,11,26,7.10
2015,03,03,11,27,7.20
2015,03,03,11,28,7.20
2015,03,03,11,29,7.20
2015,03,03,11,30,7.20
2015,03,03,11,31,7.20
2015,03,03,11,32,7.20
2015,03,03,11,33,7.20
2015,03,03,11,34,7.20
2015,03,03,11,35,7.20
2015,03,03,11,36,7.20
2015,03,03,11,37,7.20
2015,03,03,11,38,7.10
2015,03,03,11,39,7.10
2015,03,03,11,40,7.10
2015,03,03,11,41,7.20
2015,03,03,11,42,7.20
2015,03,03,11,43,7.20
2015,03,03,11,44,7.10
2015,03,03,11,45,7.10
2015,03,03,11,46,7.20
2015,03,03,11,47,7.20
2015,03,03,11,48,7.20
2015,03,03,11,49,7.20
2015,03,03,11,50,7.30
2015,03,03,11,51,7.30
2015,03,03,11,52,7.30
2015,03,03,11,53,7.30
2015,03,03,11,54,7.30
2015,03,03,11,55,7.40
2015,03,03,11,56,7.40
2015,03,03,11,57,7.40
2015,03,03,11,58,7.40
2015,03,03,11,59,7.30
2015,03,03,12,00,7.30
2015,03,03,12,01,7.30
2015,03,03,12,02,7.40
2015,03,03,12,03,7.40
2015,03,03,12,04,7.40
2015,03,03,12,05,7.40
2015,03,03,12,06,7.40
2015,03,03,12,07,7.50
2015,03,03,12,08,7.50
2015,03,03,12,09,7.50
2015,03,03,12,10,7.60
2015,03,03,12,11,7.60
2015,03,03,12,12,7.60
2015,03,03,12,13,7.60
2015,03,03,12,14,7.60
2015,03,03,12,15,7.70
2015,03,03,12,16,7.70
2015,03,03,12,17,7.70
2015,03,03,12,18,7.70
2015,03,03,12,19,7.70
2015,03,03,12,20,7.80
2015,03,03,12,21,7.80
2015,03,03,12,22,7.80
2015,03,03,12,23,7.70
2015,03,03,12,24,7.70
2015,03,03,12,25,7.70
2015,03,03,12,26,7.70
2015,03,03,12,27,7.80
2015,03,03,12,28,7.80
2015,03,03,12,29,7.80
2015,03,03,12,30,7.90
2015,03,03,12,31,7.90
2015,03,03,12,32,7.90
2015,03,03,12,33,8.00
2015,03,03,12,34,8.10
2015,03,03,12,35,8.20
2015,03,03,12,36,8.30
2015,03,03,12,37,8.30
2015,03,03,12,38,8.30
2015,03,03,12,39,8.30
2015,03,03,12,40,8.30
2015,03,03,12,41,8.30
2015,03,03,12,42,8.30
2015,03,03,12,43,8.20
2015,03,03,12,44,8.20
2015,03,03,12,45,8.20
2015,03,03,12,46,8.20
2015,03,03,12,47,8.10
2015,03,03,12,48,8.00
2015,03,03,12,49,7.90
2015,03,03,12,50,7.90
2015,03,03,12,51,7.90
2015,03,03,12,52,7.90
2015,03,03,12,53,7.90
2015,03,03,12,54,7.80
2015,03,03,12,55,7.80
2015,03,03,12,56,7.80
2015,03,03,12,57,7.80
2015,03,03,12,58,7.80
2015,03,03,12,59,7.80
2015,03,03,13,00,7.80
2015,03,03,13,01,7.90
2015,03,03,13,02,7.90
2015,03,03,13,03,7.90
2015,03,03,13,04,8.00
2015,03,03,13,05,8.00
2015,03,03,13,06,7.90
2015,03,03,13,07,7.90
2015,03,03,13,08,7.80
2015,03,03,13,09,7.80
2015,03,03,13,10,7.80
2015,03,03,13,11,7.80
2015,03,03,13,12,7.80
2015,03,03,13,13,7.90
2015,03,03,13,14,7.90
2015,03,03,13,15,8.00
2015,03,03,13,16,8.10
2015,03,03,13,17,8.00
2015,03,03,13,18,8.00
2015,03,03,13,19,8.00
2015,03,03,13,20,8.10
2015,03,03,13,21,8.10
2015,03,03,13,22,8.20
2015,03,03,13,23,8.20
2015,03,03,13,24,8.30
2015,03,03,13,25,8.30
2015,03,03,13,26,8.30
2015,03,03,13,27,8.30
2015,03,03,13,28,8.20
2015,03,03,13,29,8.20
2015,03,03,13,30,8.20
2015,03,03,13,31,8.20
2015,03,03,13,32,8.30
2015,03,03,13,33,8.30
2015,03,03,13,34,8.20
2015,03,03,13,35,8.20
2015,03,03,13,36,8.10
2015,03,03,13,37,8.00
2015,03,03,13,38,8.00
2015,03,03,13,39,8.10
2015,03,03,13,40,8.00
2015,03,03,13,41,8.00
2015,03,03,13,42,8.00
2015,03,03,13,43,8.00
2015,03,03,13,44,8.00
2015,03,03,13,45,8.00
2015,03,03,13,46,8.00
2015,03,03,13,47,8.00
2015,03,03,13,48,8.00
2015,03,03,13,49,8.00
2015,03,03,13,50,7.90
2015,03,03,13,51,7.90
2015,03,03,13,52,7.80
2015,03,03,13,53,7.80
2015,03,03,13,54,7.80
2015,03,03,13,55,7.90
2015,03,03,13,56,7.90
2015,03,03,13,57,8.00
2015,03,03,13,58,8.00
2015,03,03,13,59,8.10
2015,03,03,14,00,8.10
2015,03,03,14,01,8.10
2015,03,03,14,02,8.20
2015,03,03,14,03,8.20
2015,03,03,14,04,8.20
2015,03,03,14,05,8.20
2015,03,03,14,06,8.20
2015,03,03,14,07,8.20
2015,03,03,14,08,8.10
2015,03,03,14,09,8.10
2015,03,03,14,10,8.20
2015,03,03,14,11,8.20
2015,03,03,14,12,8.20
2015,03,03,14,13,8.20
2015,03,03,14,14,8.20
2015,03,03,14,15,8.20
2015,03,03,14,16,8.20
2015,03,03,14,17,8.20
2015,03,03,14,18,8.20
2015,03,03,14,19,8.20
2015,03,03,14,20,8.20
2015,03,03,14,21,8.20
2015,03,03,14,22,8.20
2015,03,03,14,23,8.20
2015,03,03,14,24,8.20
2015,03,03,14,25,8.20
2015,03,03,14,26,8.20
2015,03,03,14,27,8.20
2015,03,03,14,28,8.10
2015,03,03,14,29,8.10
2015,03,03,14,30,8.00
2015,03,03,14,31,8.00
2015,03,03,14,32,8.00
2015,03,03,14,33,8.00
2015,03,03,14,34,8.00
2015,03,03,14,35,8.00
2015,03,03,14,36,8.10
2015,03,03,14,37,8.10
2015,03,03,14,38,8.10
2015,03,03,14,39,8.10
2015,03,03,14,40,8.20
2015,03,03,14,41,8.20
2015,03,03,14,42,8.20
2015,03,03,14,43,8.20
2015,03,03,14,44,8.20
2015,03,03,14,45,8.30
2015,03,03,14,46,8.20
2015,03,03,14,47,8.20
2015,03,03,14,48,8.10
2015,03,03,14,49,8.10
2015,03,03,14,50,8.10
2015,03,03,14,51,8.20
2015,03,03,14,52,8.20
2015,03,03,14,53,8.10
2015,03,03,14,54,8.10
2015,03,03,14,55,8.10
2015,03,03,14,56,8.10
2015,03,03,14,57,8.10
2015,03,03,14,58,8.10
2015,03,03,14,59,8.10
2015,03,03,15,00,8.10
2015,03,03,15,01,8.10
2015,03,03,15,02,8.10
2015,03,03,15,03,8.00
2015,03,03,15,04,8.00
2015,03,03,15,05,8.00
2015,03,03,15,06,8.00
2015,03,03,15,07,8.10
2015,03,03,15,08,8.10
2015,03,03,15,09,8.10
2015,03,03,15,10,8.20
2015,03,03,15,11,8.20
2015,03,03,15,12,8.20
2015,03,03,15,13,8.20
2015,03,03,15,14,8.20
2015,03,03,15,15,8.20
2015,03,03,15,16,8.20
2015,03,03,15,17,8.20
2015,03,03,15,18,8.20
2015,03,03,15,19,8.20
2015,03,03,15,20,8.20
2015,03,03,15,21,8.20
2015,03,03,15,22,8.20
2015,03,03,15,23,8.20
2015,03,03,15,24,8.20
2015,03,03,15,25,8.20
2015,03,03,15,26,8.20
2015,03,03,15,27,8.30
2015,03,03,15,28,8.30
2015,03,03,15,29,8.30
2015,03,03,15,30,8.20
2015,03,03,15,31,8.20
2015,03,03,15,32,8.20
2015,03,03,15,33,8.20
2015,03,03,15,34,8.20
2015,03,03,15,35,8.20
2015,03,03,15,36,8.20
2015,03,03,15,37,8.20
2015,03,03,15,38,8.20
2015,03,03,15,39,8.20
2015,03,03,15,40,8.30
2015,03,03,15,41,8.30
2015,03,03,15,42,8.30
2015,03,03,15,43,8.30
2015,03,03,15,44,8.30
2015,03,03,15,45,8.40
2015,03,03,15,46,8.40
2015,03,03,15,47,8.40
2015,03,03,15,48,8.40
2015,03,03,15,49,8.50
2015,03,03,15,50,8.50
2015,03,03,15,51,8.50
2015,03,03,15,52,8.60
2015,03,03,15,53,8.60
2015,03,03,15,54,8.60
2015,03,03,15,55,8.60
2015,03,03,15,56,8.60
2015,03,03,15,57,8.70
2015,03,03,15,58,8.70
2015,03,03,15,59,8.70
2015,03,03,16,00,8.80
2015,03,03,16,01,8.80
2015,03,03,16,02,8.80
2015,03,03,16,03,8.80
2015,03,03,16,04,8.80
2015,03,03,16,05,8.80
2015,03,03,16,06,8.90
2015,03,03,16,07,8.90
2015,03,03,16,08,8.90
2015,03,03,16,09,8.80
2015,03,03,16,10,8.80
2015,03,03,16,11,8.80
2015,03,03,16,12,8.80
2015,03,03,16,13,8.80
2015,03,03,16,14,8.90
2015,03,03,16,15,8.90
2015,03,03,16,16,8.90
2015,03,03,16,17,8.90
2015,03,03,16,18,8.90
2015,03,03,16,19,8.80
2015,03,03,16,20,8.80
2015,03,03,16,21,8.80
2015,03,03,16,22,8.90
2015,03,03,16,23,8.90
2015,03,03,16,24,8.90
2015,03,03,16,25,8.90
2015,03,03,16,26,8.90
2015,03,03,16,27,8.90
2015,03,03,16,28,8.90
2015,03,03,16,29,9.00
2015,03,03,16,30,9.00
2015,03,03,16,31,9.00
2015,03,03,16,32,9.10
2015,03,03,16,33,9.10
2015,03,03,16,34,9.00
2015,03,03,16,35,8.90
2015,03,03,16,36,8.90
2015,03,03,16,37,8.90
2015,03,03,16,38,8.90
2015,03,03,16,39,8.90
2015,03,03,16,40,8.90
2015,03,03,16,41,8.90
2015,03,03,16,42,8.80
2015,03,03,16,43,8.80
2015,03,03,16,44,8.80
2015,03,03,16,45,8.80
2015,03,03,16,46,8.80
2015,03,03,16,47,8.80
2015,03,03,16,48,8.80
2015,03,03,16,49,8.80
2015,03,03,16,50,8.80
2015,03,03,16,51,8.90
2015,03,03,16,52,8.90
2015,03,03,16,53,8.90
2015,03,03,16,54,9.00
2015,03,03,16,55,9.10
2015,03,03,16,56,9.10
2015,03,03,16,57,9.20
2015,03,03,16,58,9.20
2015,03,03,16,59,9.30
2015,03,03,17,00,9.30
2015,03,03,17,01,9.30
2015,03,03,17,02,9.30
2015,03,03,17,03,9.30
2015,03,03,17,04,9.30
2015,03,03,17,05,9.30
2015,03,03,17,06,9.30
2015,03,03,17,07,9.30
2015,03,03,17,08,9.20
2015,03,03,17,09,9.10
2015,03,03,17,10,9.10
2015,03,03,17,11,9.00
2015,03,03,17,12,8.90
2015,03,03,17,13,8.90
2015,03,03,17,14,8.80
2015,03,03,17,15,8.70
2015,03,03,17,16,8.60
2015,03,03,17,17,8.50
2015,03,03,17,18,8.40
2015,03,03,17,19,8.40
2015,03,03,17,20,8.40
2015,03,03,17,21,8.40
2015,03,03,17,22,8.40
2015,03,03,17,23,8.40
2015,03,03,17,24,8.40
2015,03,03,17,25,8.40
2015,03,03,17,26,8.50
2015,03,03,17,27,8.50
2015,03,03,17,28,8.50
2015,03,03,17,29,8.50
2015,03,03,17,30,8.60
2015,03,03,17,31,8.60
2015,03,03,17,32,8.60
2015,03,03,17,33,8.60
2015,03,03,17,34,8.60
2015,03,03,17,35,8.50
2015,03,03,17,36,8.40
2015,03,03,17,37,8.40
2015,03,03,17,38,8.30
2015,03,03,17,39,8.20
2015,03,03,17,40,8.10
2015,03,03,17,41,8.00
2015,03,03,17,42,7.80
2015,03,03,17,43,7.80
2015,03,03,17,44,7.70
2015,03,03,17,45,7.60
2015,03,03,17,46,7.60
2015,03,03,17,47,7.50
2015,03,03,17,48,7.50
2015,03,03,17,49,7.50
2015,03,03,17,50,7.50
2015,03,03,17,51,7.50
2015,03,03,17,52,7.50
2015,03,03,17,53,7.50
2015,03,03,17,54,7.50
2015,03,03,17,55,7.50
2015,03,03,17,56,7.50
2015,03,03,17,57,7.60
2015,03,03,17,58,7.60
2015,03,03,17,59,7.60
2015,03,03,18,00,7.60
2015,03,03,18,01,7.60
2015,03,03,18,02,7.60
2015,03,03,18,03,7.50
2015,03,03,18,04,7.50
2015,03,03,18,05,7.50
2015,03,03,18,06,7.40
2015,03,03,18,07,7.40
2015,03,03,18,08,7.40
2015,03,03,18,09,7.30
2015,03,03,18,10,7.30
2015,03,03,18,11,7.30
2015,03,03,18,12,7.30
2015,03,03,18,13,7.30
2015,03,03,18,14,7.30
2015,03,03,18,15,7.30
2015,03,03,18,16,7.30
2015,03,03,18,17,7.30
2015,03,03,18,18,7.30
2015,03,03,18,19,7.20
2015,03,03,18,20,7.20
2015,03,03,18,21,7.20
2015,03,03,18,22,7.10
2015,03,03,18,23,7.10
2015,03,03,18,24,7.00
2015,03,03,18,25,7.00
2015,03,03,18,26,7.00
2015,03,03,18,27,6.90
2015,03,03,18,28,6.90
2015,03,03,18,29,6.80
2015,03,03,18,30,6.80
2015,03,03,18,31,6.80
2015,03,03,18,32,6.70
2015,03,03,18,33,6.70
2015,03,03,18,34,6.60
2015,03,03,18,35,6.60
2015,03,03,18,36,6.60
2015,03,03,18,37,6.50
2015,03,03,18,38,6.50
2015,03,03,18,39,6.40
2015,03,03,18,40,6.40
2015,03,03,18,41,6.40
2015,03,03,18,42,6.30
2015,03,03,18,43,6.30
2015,03,03,18,44,6.30
2015,03,03,18,45,6.20
2015,03,03,18,46,6.10
2015,03,03,18,47,6.00
2015,03,03,18,48,5.90
2015,03,03,18,49,5.80
2015,03,03,18,50,5.70
2015,03,03,18,51,5.60
2015,03,03,18,52,5.50
2015,03,03,18,53,5.40
2015,03,03,18,54,5.30
2015,03,03,18,55,5.30
2015,03,03,18,56,5.20
2015,03,03,18,57,5.10
2015,03,03,18,58,5.10
2015,03,03,18,59,5.00
2015,03,03,19,00,4.90
2015,03,03,19,01,4.90
2015,03,03,19,02,4.80
2015,03,03,19,03,4.70
2015,03,03,19,04,4.70